Regional Weather Roundup
Issued by NWS

Home | Current Version | Previous Version | Text Only | Print | Product List | Glossary Off
Versions: 1 2 3 4 5 6 7 8 9 10 11 12 13 14 15 16 17 18 19 20 21 22 23 24 25 26 27 28 29 30 31 32 33 34 35 36 37 38 39 40 41 42 43 44 45 46 47 48

000
ASUS45 KCYS 260110
RWRWY

WYOMING REGIONAL WEATHER ROUNDUP
NATIONAL WEATHER SERVICE CHEYENNE WY
600 PM MST SUN JAN 25 2015

NOTE:  "FAIR" INDICATES FEW OR NO CLOUDS BELOW 12,000 FEET
WITH NO SIGNIFICANT WEATHER AND/OR OBSTRUCTIONS TO VISIBILITY.

WYZ001-260200-
YELLOWSTONE NATIONAL PARK

CITY           SKY/WX    TMP DP  RH WIND       PRES   REMARKS
LK YELLOWSTONE   N/A     30  26  85 CALM      30.44S
W YELLOWSTONE  NOT AVBL

$$
WYZ002>013-054>058-071-098>099-260200-
NORTHERN WYOMING

CITY           SKY/WX    TMP DP  RH WIND       PRES   REMARKS
JACKSON        CLEAR     28  25  86 N7        30.43R WCI  21
CODY           FAIR      55  25  30 W13G25    30.15R
GREYBULL       FAIR      27  23  85 NW5       30.16R WCI  22
WORLAND        FAIR      25  22  88 S5        30.15R WCI  19
SHERIDAN       FAIR      48  29  47 NW6       30.04R
BUFFALO          N/A     45  30  55 S5        30.07R
GILLETTE       FAIR      42  31  64 W12       30.03R
HULETT           N/A    N/A N/A N/A MISG        N/A
NEWCASTLE      FAIR      39  32  75 N8        30.03R WCI  34

$$
WYZ014>020-022>026-101>103-260200-
CENTRAL WYOMING

CITY           SKY/WX    TMP DP  RH WIND       PRES   REMARKS
BIG PINEY      FAIR      37  27  67 N10       30.36R WCI  30
PINEDALE       FAIR      36  28  75 W23       30.34R WCI  24
DUBOIS         FAIR      43  23  45 W32G38    30.28S
LANDER         FAIR      43  27  53 SW6       30.19R
RIVERTON       FAIR      35  26  69 W3        30.20R
CASPER         FAIR      42  29  59 SW16      30.15R
DOUGLAS        FAIR      43  29  57 NW13      30.12R

$$
WYZ021-027>030-104>119-260200-
SOUTHERN WYOMING

CITY           SKY/WX    TMP DP  RH WIND       PRES   REMARKS
EVANSTON       FAIR      42  30  62 W3        30.42S
KEMMERER       FAIR      34  30  86 NW12      30.43R WCI  25
FORT BRIDGER   FAIR      40  32  73 W5        30.43R
ROCK SPRINGS   FAIR      40  26  57 W5        30.35R
DIXON          FAIR      33  28  82 NE3       30.40R
RAWLINS        FAIR      38  28  67 W17G26    30.28R WCI  28
SARATOGA       FAIR      37  28  70 CALM      30.32R
LARAMIE        FAIR      37  24  59 VRB3      30.22R
CHEYENNE       FAIR      44  26  49 NW9       30.15R
TORRINGTON     FAIR      46  31  55 NW13G26   30.08R
PINE BLUFFS    FAIR      43  30  61 NW16      30.14R

$$


USA.gov is the U.S. government's official web portal to all federal, state and local government web resources and services.